SCP
0 0 0 1 1 1 1 1 1 1 1 1 1 0 1 1 1 1 1 1 0 1 1 1 1 1 1 1 1 1 1 1 1 1 0 0 0 0 0 0 0 0 0
0 0 0 0 1 1 1 1 1 1 1 1 1 0 1 1 1 1 1 1 0 1 1 1 1 1 1 1 1 1 1 1 1 1 0 0 0 0 0 0 0 0 0
0 0 0 0 0 1 1 0 0 1 1 1 1 1 0 1 1 1 1 1 1 1 1 1 1 1 1 1 1 1 1 1 1 1 1 0 0 0 0 0 0 0 1
1 1 1 1 1 0 0 0 0 0 1 1 0 0 1 1 1 1 1 1 1 1 1 1 1 1 2 1 1 1 1 1 1 1 1 1 0 0 1 1 1 1 1
1 1 1 1 1 1 0 0 0 0 0 0 0 1 1 1 1 1 1 1 1 1 1 1 1 2 2 2 2 2 1 1 1 1 1 1 1 1 1 1 1 1 1
1 1 1 1 1 1 1 0 1 1 1 0 0 1 1 1 1 1 1 1 1 1 1 1 1 2 2 2 2 2 2 2 1 1 1 1 1 1 1 1 1 1 1
1 1 1 1 1 1 1 1 1 1 1 1 1 1 1 1 0 0 0 1 1 1 1 1 1 1 1 2 2 2 2 2 1 1 1 1 1 1 1 1 1 1 1
1 1 1 1 1 1 1 1 1 1 1 1 1 0 0 0 0 0 0 0 1 1 1 1 1 1 1 1 1 2 2 1 1 1 1 1 1 1 1 1 1 1 1
1 1 1 1 1 1 1 1 1 1 1 1 0 0 0 0 0 0 0 0 0 0 1 1 1 1 1 1 1 1 1 1 1 1 1 1 1 1 1 1 1 1 1
1 1 1 0 0 1 1 1 1 1 0 0 0 0 0 0 0 0 0 0 0 0 0 0 1 1 1 1 1 1 1 1 1 1 1 1 1 1 1 1 1 1 1
0 0 0 0 0 0 0 0 0 0 0 0 0 0 0 0 0 0 0 0 0 0 0 0 1 1 1 1 1 1 1 1 0 0 1 1 1 1 1 1 1 1 1
0 0 0 0 0 0 0 0 0 0 0 0 0 0 0 0 0 0 0 0 0 0 0 0 1 1 1 1 1 1 1 1 0 0 0 1 1 1 1 1 1 1 2
0 0 0 0 0 0 1 1 1 0 0 0 0 0 0 0 0 0 0 0 0 0 0 0 1 1 1 1 1 1 1 1 1 1 1 1 1 1 1 1 1 1 1
0 0 0 0 0 0 0 0 1 0 0 0 0 0 0 0 0 0 0 0 0 0 0 0 0 0 0 0 1 1 1 1 1 1 1 1 1 0 0 1 1 1 0
0 0 0 0 0 0 0 0 0 1 0 0 0 0 0 0 0 0 0 0 0 0 0 0 0 0 0 0 0 1 1 1 1 1 1 1 1 1 0 1 1 1 1
0 0 0 0 0 0 0 0 0 0 0 1 1 1 0 0 0 0 0 0 0 0 0 0 0 0 0 1 1 1 1 1 1 1 1 1 1 1 1 1 1 1 1
0 0 0 0 0 0 0 0 0 0 0 1 1 1 1 1 1 1 1 1 0 0 0 0 0 0 0 1 1 1 1 1 1 2 1 1 1 1 1 1 1 1 1
0 0 0 0 0 0 0 0 0 0 0 0 1 1 1 1 1 1 1 1 1 0 0 0 0 0 0 1 1 0 0 1 1 2 1 1 1 1 1 1 1 1 1
0 0 0 1 1 0 0 0 0 0 0 0 0 1 1 1 1 1 1 1 1 0 0 0 0 0 0 0 0 0 0 1 1 2 1 1 1 1 1 1 1 1 1
0 0 1 1 1 0 0 0 0 0 0 0 0 0 0 0 0 0 0 0 0 0 1 0 0 0 0 0 0 0 0 1 1 1 1 1 1 1 1 1 1 1 1
0 0 1 1 1 0 0 0 1 0 0 0 0 0 0 0 0 0 0 0 0 0 0 0 0 0 0 0 0 0 1 1 2 2 2 2 2 2 1 1 1 1 1
1 1 1 1 0 0 0 1 1 0 0 0 0 0 0 0 0 0 0 0 0 0 0 0 0 1 0 0 0 0 1 2 2 2 2 3 3 3 2 1 1 1 1
1 1 1 1 1 0 0 0 0 0 0 0 0 0 0 0 0 1 0 0 0 0 0 0 0 1 1 0 0 1 1 2 2 1 2 2 2 3 3 2 1 1 1
1 1 1 1 1 1 1 1 0 0 0 0 0 0 0 0 0 1 1 0 1 1 0 0 0 1 1 1 1 1 1 2 2 1 1 1 1 2 2 1 1 1 1
1 1 1 1 1 1 1 1 0 0 0 0 0 0 0 0 0 0 0 0 1 1 0 0 0 1 1 1 1 1 1 2 2 1 0 0 0 1 1 1 1 1 1
1 2 2 2 1 1 1 1 0 0 0 0 0 0 0 0 0 0 0 0 0 0 0 0 0 1 1 1 1 1 1 2 2 1 0 0 0 0 0 0 1 1 1
Wind_Speed
2 3 4 4 5 7 8 9 9 9 8 9 9 9 8 8 8 8 8 8 7 7 7 7 7 7 8 8 7 8 8 8 7 7 7 6 5 5 4 3 2 3 6
3 4 6 5 7 8 8 9 9 9 9 9 9 9 9 9 8 8 8 8 7 7 7 7 7 7 7 7 7 8 8 8 8 7 5 5 6 5 5 4 3 4 5
4 5 6 6 7 8 9 9 9 9 10 10 10 10 10 10 9 8 8 8 8 7 7 7 7 7 7 7 7 8 8 7 6 4 1 3 6 6 5 5 4 4 4
5 5 7 7 7 8 9 9 9 9 10 10 10 10 10 10 9 9 9 8 8 7 7 7 6 7 7 7 7 7 7 6 5 1 2 4 5 7 6 5 4 4 4
5 5 8 6 8 8 9 9 10 9 9 10 11 10 10 10 10 9 9 9 8 7 7 7 6 7 7 7 7 7 7 6 3 2 5 5 5 7 6 5 5 5 4
6 6 8 7 8 8 9 9 9 10 10 10 11 11 11 10 10 9 9 9 8 8 7 7 7 7 7 7 7 7 7 4 2 5 4 4 5 7 6 6 6 6 6
6 6 9 7 8 8 8 9 10 10 10 11 11 11 10 10 10 10 10 9 9 8 8 7 7 7 7 7 7 7 6 3 4 5 5 5 6 7 7 7 6 6 7
6 6 8 9 8 9 9 9 10 10 11 11 11 10 10 10 10 10 10 9 9 9 8 8 7 7 7 7 7 7 6 4 5 5 5 6 8 7 7 7 7 7 7
6 6 6 7 8 9 9 9 10 10 10 10 10 10 10 9 9 9 9 9 9 9 9 8 8 8 7 7 7 7 6 3 4 5 6 6 8 8 7 7 7 7 7
6 6 6 6 6 7 8 10 9 10 10 10 10 9 8 8 8 7 8 9 9 9 9 8 8 8 8 7 7 6 3 0 5 6 5 7 8 8 8 7 6 6 7
5 5 5 5 5 5 6 8 7 8 8 7 8 7 3 4 6 5 10 8 8 8 8 7 7 6 5 6 6 3 1 3 5 5 6 9 9 9 9 8 7 6 6
6 5 4 5 5 5 4 5 4 5 4 4 5 5 4 4 5 5 8 8 8 7 6 6 4 3 1 3 4 2 2 4 5 5 6 9 9 9 9 9 8 7 6
6 5 5 5 4 5 4 3 3 3 3 4 4 5 3 4 3 3 3 4 4 3 4 4 2 3 3 3 3 3 4 3 3 4 6 8 8 8 9 9 9 8 8
5 5 5 4 4 4 4 3 3 3 2 3 3 4 3 2 2 3 2 3 2 2 3 3 2 3 3 3 3 4 4 3 3 3 6 8 8 8 8 9 10 9 9
5 5 5 4 4 4 4 3 3 3 3 3 3 3 3 2 2 2 2 2 3 2 2 2 3 4 3 4 4 4 4 4 3 4 4 8 8 8 9 10 10 10 10
5 5 5 5 4 4 4 3 3 3 3 3 3 3 3 3 2 2 2 2 3 3 3 2 3 3 2 3 4 4 4 3 3 3 3 5 7 8 8 9 9 10 10
5 5 5 5 4 4 4 4 3 2 3 3 3 3 3 3 2 2 2 2 2 2 2 2 3 2 2 3 3 3 3 3 3 3 3 3 3 6 7 8 8 9 8
5 5 5 4 4 4 4 3 3 3 3 3 2 2 2 3 3 2 2 2 2 2 2 2 2 2 2 2 2 2 2 2 2 3 2 2 2 3 5 7 7 8 8
5 5 6 6 5 5 4 3 3 3 2 2 2 2 2 2 2 2 2 2 2 2 2 2 2 1 2 2 2 1 1 2 2 1 2 3 3 2 3 5 5 6 7
6 6 6 6 6 5 4 3 3 2 2 2 2 1 2 2 2 2 2 2 2 2 2 1 2 1 1 1 1 1 1 1 1 1 2 2 2 3 3 3 2 4 5
6 6 6 7 6 5 4 3 3 3 2 1 1 2 2 1 2 2 1 2 1 1 1 1 1 2 1 0 0 0 1 1 1 1 1 1 2 3 2 3 2 2 2
6 6 7 7 7 7 4 4 3 3 2 2 1 1 1 1 1 1 1 1 1 1 1 1 1 0 1 1 2 2 1 2 1 1 1 1 1 2 2 2 2 2 2
7 7 6 7 8 7 6 4 3 3 2 2 2 1 1 1 1 1 1 1 1 1 1 0 0 0 0 1 2 3 2 1 1 1 1 0 1 1 1 2 2 2 2
7 6 7 7 7 7 7 6 6 4 3 3 2 2 3 2 2 1 1 1 1 1 1 1 1 1 2 1 0 2 3 2 2 1 1 1 1 1 2 1 2 2 2
6 6 6 7 7 7 7 6 6 4 3 2 2 3 3 3 2 2 2 1 1 1 1 1 1 2 2 2 1 1 1 1 3 2 1 0 0 0 1 2 1 2 2
6 6 5 6 7 6 7 7 6 5 4 4 4 3 3 2 2 2 2 2 2 2 2 2 2 2 2 2 2 2 2 1 1 1 2 2 1 0 1 1 1 1 1
Wind_Direction
104 91 78 69 71 70 69 71 70 70 77 79 82 87 95 96 94 94 97 97 94 90 89 89 86 84 82 81 81 81 82 82 81 81 82 82 81 74 71 88 109 112 95
100 98 92 82 78 76 75 74 71 69 74 77 80 84 88 93 93 89 91 97 94 89 85 82 83 82 82 82 80 78 79 80 80 81 86 100 91 75 68 75 57 73 94
102 100 107 86 82 81 80 78 74 71 73 75 76 79 84 88 87 83 83 90 94 91 86 81 81 82 85 85 83 81 78 77 77 81 130 107 96 77 66 69 78 83 93
99 97 89 86 88 86 82 79 78 74 75 78 78 77 78 83 83 81 79 81 87 90 87 83 81 83 85 85 85 81 76 73 67 6 82 67 72 71 59 61 70 75 80
98 93 91 85 86 86 84 81 81 80 81 83 81 77 75 79 80 78 76 77 78 82 84 82 80 82 83 85 83 79 75 72 69 49 64 64 64 62 54 57 60 63 69
102 98 97 86 87 87 85 84 82 81 82 83 81 76 75 75 76 75 72 73 75 75 79 83 83 82 81 81 84 80 73 62 65 65 62 62 63 60 56 57 57 58 59
105 99 100 90 90 89 85 86 81 80 80 79 80 78 75 75 75 74 73 72 72 69 71 76 80 81 81 82 82 78 72 45 62 68 63 59 57 54 53 56 60 62 61
103 99 101 97 88 86 85 86 84 80 77 76 77 78 77 74 72 72 70 70 70 67 65 70 70 73 79 82 81 76 60 11 71 69 65 61 58 53 55 56 57 57 56
106 104 100 107 107 98 86 82 80 77 75 75 75 73 73 72 71 69 69 69 69 64 63 65 67 70 76 81 82 79 71 24 54 61 66 61 57 53 51 53 53 53 53
111 106 101 101 102 103 101 87 80 76 74 75 73 70 73 81 81 73 74 68 66 62 61 64 68 72 73 76 80 82 84 122 60 61 54 62 57 51 48 48 50 52 52
117 112 109 108 99 93 93 99 99 92 81 88 88 82 89 87 84 82 65 66 67 66 62 63 72 82 91 96 87 86 151 68 68 57 53 54 54 52 49 48 48 49 50
134 125 119 117 112 108 100 103 95 94 95 86 84 87 76 73 67 65 78 70 70 70 78 70 84 136 167 98 112 165 77 71 67 64 62 52 51 51 48 45 42 43 43
134 127 127 126 119 113 112 105 94 89 88 85 81 82 76 79 89 80 87 101 91 83 73 89 122 71 65 64 60 68 60 54 58 61 64 53 48 47 47 45 38 42 47
134 132 131 132 125 118 114 107 106 103 95 87 80 77 75 69 65 70 67 65 69 67 56 49 49 61 64 74 74 70 71 58 56 59 66 56 44 41 45 45 44 47 51
145 145 140 140 129 121 108 103 111 102 96 94 79 71 72 72 68 72 74 66 61 62 63 47 47 59 56 56 56 54 57 57 58 60 73 66 48 43 47 47 47 51 53
157 153 144 147 137 131 125 127 109 104 102 91 84 73 73 71 67 68 70 63 57 51 49 55 61 65 65 63 55 48 47 50 49 58 61 79 67 51 50 49 49 50 51
168 161 151 150 145 140 130 116 108 112 110 99 84 69 71 65 62 65 63 68 61 59 59 51 61 53 62 69 62 50 45 41 40 46 53 45 71 73 60 53 50 49 48
173 171 157 159 156 143 132 127 121 115 108 101 92 68 67 69 61 61 63 66 60 58 55 56 47 59 61 55 49 44 46 51 40 39 50 61 50 52 75 64 51 46 44
176 175 169 168 162 148 139 137 124 121 113 102 98 83 68 68 69 72 59 59 65 60 52 51 48 44 60 53 45 33 26 41 36 33 45 49 55 55 64 90 77 50 41
179 178 172 169 168 156 151 150 138 134 126 109 102 94 83 77 77 78 86 83 74 73 59 55 74 59 43 42 46 44 40 46 27 21 26 41 38 45 42 53 86 92 64
179 183 177 176 173 166 161 167 166 166 158 139 122 109 106 96 97 93 92 87 67 70 56 49 67 100 87 355 272 98 132 113 46 74 23 26 59 49 38 54 41 33 85
182 188 183 182 178 173 172 172 173 166 166 149 141 134 136 136 120 116 129 117 112 70 72 67 67 29 68 312 306 282 211 165 130 80 79 31 31 59 35 32 42 40 19
187 189 189 184 179 176 173 170 157 150 163 165 172 171 178 169 153 167 154 139 141 179 144 139 155 246 277 297 319 310 297 359 84 149 73 119 58 31 34 29 29 28 24
189 188 191 184 180 176 174 177 177 184 186 190 185 176 184 182 176 196 190 193 175 197 190 220 251 271 274 266 274 324 330 351 284 209 178 112 50 29 20 26 22 22 22
183 183 188 181 179 175 180 179 191 195 195 183 183 184 187 177 191 206 213 197 205 213 220 225 241 263 260 283 285 271 291 285 281 289 271 246 169 61 16 360 1 15 14
171 173 180 180 177 177 184 188 198 197 197 191 193 189 193 184 201 212 219 214 222 228 227 230 228 240 267 273 273 270 277 284 296 297 286 283 293 20 347 3 338 5 349